Lid_Strength_Index
2 3 3 3 2 3 3 3 3 3 2 2 2 2 2 2 2 5 7 3 2 -1 0 7 8 8 7 8 7 7 13 14 12 10 9 6 9 7 6 6 5 4 5 4 5
2 2 2 3 3 3 3 3 3 3 2 2 2 2 2 2 5 6 2 -2 -3 -1 6 9 10 10 11 9 9 10 13 12 9 9 9 7 8 8 7 7 7 6 4 4 5
3 3 3 3 3 3 3 3 3 3 3 2 2 2 2 2 6 4 -2 -2 -2 0 5 5 5 8 12 12 10 11 13 10 9 8 7 7 7 8 7 8 6 6 5 4 5
3 3 3 3 3 3 3 3 3 3 3 3 2 2 2 4 10 6 -2 -3 -2 4 4 4 6 12 13 13 11 13 10 9 8 7 7 8 6 8 8 7 5 4 4 4 5
3 3 3 3 3 3 3 3 3 3 3 2 2 2 4 7 6 2 -3 -2 2 3 4 5 7 10 14 12 11 13 11 9 8 8 8 7 7 8 8 7 6 5 4 4 5
3 3 3 3 3 3 3 3 3 3 3 3 2 2 5 11 5 0 1 2 4 5 4 5 7 8 10 11 12 10 10 10 10 10 10 9 9 9 7 7 7 7 6 4 5
4 4 4 4 4 3 3 3 3 2 2 2 2 3 6 9 3 1 3 4 4 3 5 6 6 7 9 10 9 9 12 10 10 9 10 9 10 10 8 6 7 8 7 6 4
4 4 4 4 4 3 3 3 3 2 2 2 2 4 9 3 4 4 4 4 3 4 5 5 6 8 10 10 9 11 13 15 11 9 8 9 12 9 7 7 7 7 7 6 5
4 4 4 4 4 4 3 3 3 2 1 2 5 7 8 1 4 3 4 4 4 4 5 4 7 9 9 13 14 13 15 14 12 9 9 9 11 8 7 7 8 8 7 6 6
4 4 4 4 4 4 3 3 3 3 3 3 4 8 6 5 5 5 5 4 5 5 6 7 10 12 13 14 17 15 15 13 13 10 10 11 11 9 8 8 8 8 8 7 7
5 4 4 4 4 4 5 6 7 7 6 8 7 7 5 3 4 6 5 5 6 7 11 9 13 14 12 11 11 11 12 13 11 9 11 11 11 10 9 9 9 9 9 8 7
5 5 5 5 5 4 7 8 6 8 10 5 5 6 5 3 5 6 5 8 8 11 10 12 13 10 9 9 10 10 12 13 11 9 11 11 11 10 9 9 9 9 8 8 7
6 6 6 6 6 7 8 6 4 6 11 8 5 6 5 4 6 7 6 8 10 11 11 13 11 8 9 10 10 11 12 12 12 10 10 11 12 11 9 9 8 8 8 7 7
6 6 6 7 7 8 8 5 6 6 14 10 8 7 6 6 8 6 5 7 10 11 11 12 9 9 10 11 10 13 10 10 10 12 16 11 17 13 10 9 9 8 9 8 7
6 6 6 7 10 9 7 5 6 7 18 8 8 6 8 9 8 7 5 7 10 11 11 12 11 11 12 10 9 11 9 10 11 13 15 14 16 15 11 11 9 8 7 6 7
6 7 7 7 8 7 6 6 8 13 19 10 9 10 11 10 9 8 8 8 8 11 11 11 9 10 11 9 8 8 10 12 13 15 18 16 15 15 13 11 10 8 7 6 7
6 7 8 8 10 7 7 8 14 17 9 10 11 10 11 11 10 10 11 12 14 16 15 12 11 9 8 11 10 11 14 18 18 19 18 14 15 13 11 9 8 8 8 7 7
7 8 8 8 9 8 7 11 17 12 11 9 10 11 12 11 11 11 12 13 12 12 14 15 16 11 8 10 13 12 13 16 21 21 18 13 17 13 9 8 7 7 7 7 6
8 10 8 8 8 7 10 15 15 11 9 10 11 13 13 11 11 12 13 13 11 11 14 15 14 9 8 8 9 12 14 10 14 14 19 17 14 10 9 8 7 8 7 7 7
10 10 8 5 6 8 12 14 12 9 9 10 14 13 15 13 13 13 13 10 11 9 11 13 16 10 9 8 8 10 10 15 15 21 22 18 17 15 11 10 8 8 7 7 7
11 11 6 4 6 10 15 13 11 8 8 11 13 14 13 14 14 14 13 11 9 10 10 12 14 13 11 12 12 13 13 14 14 16 20 22 18 10 10 9 9 8 7 8 7
12 13 7 5 11 12 13 11 9 10 9 10 10 12 14 13 14 13 13 11 9 10 13 12 14 16 13 10 9 10 13 13 17 18 17 17 17 8 8 8 8 7 7 7 6
12 12 7 7 14 14 12 11 10 10 10 10 11 11 11 13 15 12 11 9 9 10 11 12 15 18 16 13 11 12 11 11 12 14 18 19 17 8 8 8 8 7 6 6 6
11 13 9 9 10 13 13 12 12 9 10 10 11 11 12 13 12 13 13 10 9 10 6 9 14 15 17 15 12 13 12 11 13 18 16 15 13 10 9 8 8 7 7 7 7
8 11 10 14 13 12 12 12 12 12 10 10 12 12 13 15 14 14 12 12 10 9 11 12 15 13 12 11 11 11 11 11 13 12 15 13 12 10 10 10 9 8 7 7 6
8 10 10 11 11 12 12 12 12 11 12 12 12 11 11 14 13 15 14 14 14 12 13 13 16 14 14 11 11 12 10 10 11 11 11 12 13 10 8 8 8 8 7 7 7
6 6 8 10 11 13 12 11 11 10 11 10 11 11 12 11 11 12 12 13 13 13 13 14 15 16 17 12 12 15 12 12 12 11 12 15 12 9 9 9 8 8 7 7 6